Location: Newark
(33.6333°S, 78.8500°W)
Time: 01:13:57
(UTC+00:00)

Courier 1B - Pass Details

Date: 24 September 2019
Orbit: 962 x 1209 km, 28.3° (Epoch: 15 October)

Event Time Altitude Azimuth Distance (km) Brightness Sun altitude
Rises 21:37:29 0° 295° (WNW) 4,104 12.3 18.9°
Reaches altitude 10° 21:40:28 10° 300° (WNW) 3,129 11.8 18.3°
Maximum altitude 21:47:54 49° 12° (NNE) 1,473 8.7 16.8°
Drops below altitude 10° 21:55:02 10° 84° (E) 3,004 9.5 15.3°
Sets 21:57:50 0° 89° (E) 3,927 10.0 14.8°
